Location: Godiavel Galaoual
(15.2485°N, 12.6604°W)
Time: 02:03:42
(UTC+00:00)

Explorer 7 - Pass Details

Date: 22 June 2021
Orbit: 484 x 676 km, 50.3° (Epoch: 29 July)

Event Time Altitude Azimuth Distance (km) Brightness Sun altitude
Rises 17:16:49 0° 182° (S) 2,874 10.3 27.7°
Reaches altitude 10° 17:19:57 10° 160° (SSE) 2,008 9.4 27.0°
Maximum altitude 17:22:39 15° 124° (ESE) 1,708 8.9 26.4°
Drops below altitude 10° 17:25:25 10° 88° (E) 2,063 9.3 25.7°
Sets 17:28:40 0° 66° (ENE) 2,999 10.2 25.0°
